Time,TemperatureF,DewpointF,PressureIn,WindDirection,WindDirectionDegrees,WindSpeedMPH,WindSpeedGustMPH,Humidity,HourlyPrecipIn,Conditions,Clouds,dailyrainin,SoftwareType,DateUTC
2013-11-17 00:11:00,23.0,11.0,30.23,NNE,19,6.0,15.0,59,0.00,,,0.00,,2013-11-17 09:11:00,
2013-11-17 00:21:00,23.0,11.0,30.23,NNE,19,6.0,15.0,59,0.00,,,0.00,,2013-11-17 09:21:00,
2013-11-17 00:33:00,23.0,11.0,30.23,NNE,19,6.0,15.0,59,0.00,,,0.00,,2013-11-17 09:33:00,
2013-11-17 03:42:00,22.0,10.0,30.25,NNE,21,6.0,14.0,59,0.00,,,0.00,,2013-11-17 12:42:00,
2013-11-17 03:52:00,22.0,10.0,30.25,ENE,59,6.0,18.0,59,0.00,,,0.00,,2013-11-17 12:52:00,
2013-11-17 04:21:00,22.0,10.0,30.25,NE,52,3.0,15.0,58,0.00,,,0.00,,2013-11-17 13:21:00,
2013-11-17 04:42:00,22.0,10.0,30.25,NE,38,5.0,12.0,59,0.00,,,0.00,,2013-11-17 13:42:00,
2013-11-17 04:52:00,21.0,9.0,30.25,NE,53,5.0,12.0,60,0.00,,,0.00,,2013-11-17 13:52:00,
2013-11-17 05:02:00,21.0,9.0,30.25,NE,53,5.0,12.0,60,0.00,,,0.00,,2013-11-17 14:02:00,
2013-11-17 05:21:00,21.0,9.0,30.25,NE,45,5.0,13.0,60,0.00,,,0.00,,2013-11-17 14:21:00,
2013-11-17 05:42:00,21.0,9.0,30.25,NE,38,4.0,20.0,59,0.00,,,0.00,,2013-11-17 14:42:00,
2013-11-17 05:52:00,21.0,9.0,30.25,NE,44,6.0,20.0,59,0.00,,,0.00,,2013-11-17 14:52:00,
2013-11-17 06:22:00,21.0,9.0,30.24,NNE,20,4.0,15.0,60,0.00,,,0.00,,2013-11-17 15:22:00,
2013-11-17 06:54:00,21.0,9.0,30.25,NNE,28,6.0,16.0,60,0.00,,,0.00,,2013-11-17 15:54:00,
2013-11-17 07:23:00,21.0,10.0,30.25,NE,34,4.0,17.0,61,0.00,,,0.00,,2013-11-17 16:23:00,
2013-11-17 07:42:00,21.0,10.0,30.25,NNE,30,3.0,13.0,62,0.00,,,0.00,,2013-11-17 16:42:00,
2013-11-17 07:53:00,21.0,10.0,30.25,NNE,26,3.0,13.0,62,0.00,,,0.00,,2013-11-17 16:53:00,
2013-11-17 08:12:00,21.0,10.0,30.26,NNE,21,3.0,10.0,62,0.00,,,0.00,,2013-11-17 17:12:00,
2013-11-17 08:22:00,21.0,10.0,30.26,NNE,18,3.0,10.0,62,0.00,,,0.00,,2013-11-17 17:22:00,
2013-11-17 08:43:00,21.0,10.0,30.26,NNE,22,4.0,12.0,62,0.00,,,0.00,,2013-11-17 17:43:00,
2013-11-17 08:52:00,21.0,10.0,30.26,NNE,31,6.0,12.0,62,0.00,,,0.00,,2013-11-17 17:52:00,
2013-11-17 09:12:00,20.0,10.0,30.26,NNE,29,4.0,12.0,64,0.00,,,0.00,,2013-11-17 18:12:00,
2013-11-17 09:23:00,20.0,10.0,30.26,North,5,3.0,12.0,64,0.00,,,0.00,,2013-11-17 18:23:00,
2013-11-17 09:42:00,20.0,10.0,30.26,NE,36,6.0,12.0,64,0.00,,,0.00,,2013-11-17 18:42:00,
2013-11-17 09:52:00,20.0,10.0,30.26,North,6,1.0,16.0,64,0.00,,,0.00,,2013-11-17 18:52:00,
2013-11-17 10:11:00,20.0,9.0,30.27,NNE,13,3.0,13.0,62,0.00,,,0.00,,2013-11-17 19:11:00,
2013-11-17 10:21:00,20.0,9.0,30.27,NNE,29,6.0,14.0,61,0.00,,,0.00,,2013-11-17 19:21:00,
2013-11-17 10:52:00,21.0,9.0,30.27,North,5,2.0,10.0,60,0.00,,,0.00,,2013-11-17 19:52:00,
2013-11-17 11:22:00,21.0,10.0,30.27,NE,40,1.0,10.0,62,0.00,,,0.00,,2013-11-17 20:22:00,
2013-11-17 11:42:00,22.0,10.0,30.27,ENE,63,7.0,14.0,60,0.00,,,0.00,,2013-11-17 20:42:00,
2013-11-17 11:52:00,22.0,10.0,30.27,NNE,30,4.0,12.0,60,0.00,,,0.00,,2013-11-17 20:52:00,
2013-11-17 12:12:00,22.0,10.0,30.27,NE,50,3.0,12.0,58,0.00,,,0.00,,2013-11-17 21:12:00,
2013-11-17 12:22:00,23.0,10.0,30.26,NE,53,3.0,20.0,56,0.00,,,0.00,,2013-11-17 21:22:00,
2013-11-17 12:44:00,23.0,9.0,30.25,ESE,105,9.0,17.0,55,0.00,,,0.00,,2013-11-17 21:44:00,
2013-11-17 12:55:00,23.0,9.0,30.25,NNE,22,8.0,20.0,55,0.00,,,0.00,,2013-11-17 21:55:00,
2013-11-17 13:24:00,23.0,9.0,30.24,NE,45,5.0,17.0,55,0.00,,,0.00,,2013-11-17 22:24:00,
2013-11-17 13:43:00,23.0,9.0,30.24,ENE,74,9.0,22.0,55,0.00,,,0.00,,2013-11-17 22:43:00,
2013-11-17 13:53:00,23.0,10.0,30.24,NNE,14,6.0,18.0,56,0.00,,,0.00,,2013-11-17 22:53:00,
2013-11-17 14:23:00,22.0,8.0,30.23,NE,40,9.0,17.0,55,0.00,,,0.00,,2013-11-17 23:23:00,
2013-11-17 14:42:00,22.0,9.0,30.23,East,80,3.0,9.0,56,0.00,,,0.00,,2013-11-17 23:42:00,
2013-11-17 14:52:00,23.0,10.0,30.23,NE,42,4.0,13.0,57,0.00,,,0.00,,2013-11-17 23:52:00,
2013-11-17 15:21:00,22.0,9.0,30.23,ENE,74,6.0,16.0,57,0.00,,,0.00,,2013-11-18 00:21:00,
2013-11-17 15:42:00,22.0,10.0,30.23,NNE,28,2.0,9.0,58,0.00,,,0.00,,2013-11-18 00:42:00,
2013-11-17 15:52:00,22.0,10.0,30.23,ENE,57,1.0,9.0,58,0.00,,,0.00,,2013-11-18 00:52:00,
2013-11-17 16:22:00,21.0,8.0,30.23,ESE,107,1.0,9.0,57,0.00,,,0.00,,2013-11-18 01:22:00,
2013-11-17 16:51:00,21.0,8.0,30.23,NE,55,2.0,8.0,57,0.00,,,0.00,,2013-11-18 01:51:00,
2013-11-17 17:21:00,19.0,9.0,30.24,East,94,0.0,2.0,65,0.00,,,0.00,,2013-11-18 02:21:00,
2013-11-17 17:52:00,15.0,7.0,30.23,East,94,0.0,1.0,71,0.00,,,0.00,,2013-11-18 02:52:00,
2013-11-17 18:22:00,13.0,7.0,30.23,East,86,0.0,3.0,75,0.00,,,0.00,,2013-11-18 03:22:00,
2013-11-17 18:43:00,13.0,7.0,30.22,NNE,22,1.0,3.0,77,0.00,,,0.00,,2013-11-18 03:43:00,
2013-11-17 18:54:00,15.0,8.0,30.22,NE,50,2.0,7.0,72,0.00,,,0.00,,2013-11-18 03:54:00,
2013-11-17 19:12:00,18.0,9.0,30.23,NE,55,1.0,8.0,66,0.00,,,0.00,,2013-11-18 04:12:00,
2013-11-17 19:23:00,18.0,8.0,30.23,NE,48,2.0,7.0,65,0.00,,,0.00,,2013-11-18 04:23:00,
2013-11-17 19:52:00,18.0,8.0,30.23,NE,45,1.0,3.0,63,0.00,,,0.00,,2013-11-18 04:52:00,
2013-11-17 20:22:00,18.0,8.0,30.24,NE,48,1.0,3.0,63,0.00,,,0.00,,2013-11-18 05:22:00,
2013-11-17 20:42:00,18.0,6.0,30.24,NE,54,7.0,15.0,58,0.00,,,0.00,,2013-11-18 05:42:00,
2013-11-17 20:53:00,19.0,6.0,30.24,NE,44,5.0,15.0,56,0.00,,,0.00,,2013-11-18 05:53:00,
2013-11-17 21:22:00,17.0,7.0,30.24,East,90,0.0,3.0,64,0.00,,,0.00,,2013-11-18 06:22:00,
2013-11-17 21:42:00,16.0,7.0,30.24,East,90,0.0,1.0,67,0.00,,,0.00,,2013-11-18 06:42:00,
2013-11-17 21:52:00,15.0,7.0,30.24,East,90,0.0,1.0,69,0.00,,,0.00,,2013-11-18 06:52:00,
2013-11-17 22:11:00,12.0,5.0,30.24,East,90,0.0,0.0,72,0.00,,,0.00,,2013-11-18 07:11:00,
2013-11-17 22:21:00,12.0,5.0,30.24,East,90,0.0,0.0,72,0.00,,,0.00,,2013-11-18 07:21:00,
2013-11-17 22:42:00,10.0,5.0,30.24,East,90,0.0,1.0,78,0.00,,,0.00,,2013-11-18 07:42:00,
2013-11-17 22:52:00,9.0,4.0,30.24,SSE,151,1.0,3.0,79,0.00,,,0.00,,2013-11-18 07:52:00,
2013-11-17 23:21:00,10.0,5.0,30.24,SE,140,0.0,2.0,78,0.00,,,0.00,,2013-11-18 08:21:00,
2013-11-17 23:52:00,10.0,5.0,30.24,SE,140,0.0,1.0,78,0.00,,,0.00,,2013-11-18 08:52:00,